Meteo pe oră la Arad

Astăzi, 17 Aprilie, Sâmbătă

Timp Temperatura Precipitaţii Vânt Presiune Umiditate
00:00 +2°C° 0 mm 2 m/s 755 mmHg 76%
01:00 +1°C° 0 mm 2 m/s 755 mmHg 79%
02:00 +1°C° 0 mm 2 m/s 755 mmHg 80%
03:00 -1°C° 0 mm 2 m/s 755 mmHg 82%
04:00 -1°C° 0 mm 2 m/s 755 mmHg 83%
05:00 +2°C° 0 mm 2 m/s 755 mmHg 79%
06:00 +4°C° 0 mm 1 m/s 755 mmHg 75%
07:00 +5°C° 0 mm 1 m/s 754 mmHg 71%
08:00 +7°C° 0 mm 1 m/s 754 mmHg 65%
09:00 +8°C° 0 mm 1 m/s 754 mmHg 60%
10:00 +10°C° 0 mm 1 m/s 754 mmHg 54%
11:00 +11°C° 0 mm 1 m/s 753 mmHg 52%
12:00 +12°C° 0 mm 1 m/s 753 mmHg 50%
13:00 +13°C° 0 mm 1 m/s 752 mmHg 47%
14:00 +13°C° 0 mm 1 m/s 752 mmHg 49%
15:00 +13°C° 0 mm 1 m/s 752 mmHg 50%
16:00 +12°C° 0 mm 1 m/s 752 mmHg 51%
17:00 +11°C° 0 mm 1 m/s 752 mmHg 56%
18:00 +10°C° 0 mm 1 m/s 752 mmHg 61%
19:00 +9°C° 0 mm 1 m/s 752 mmHg 66%
20:00 +9°C° 0 mm 1 m/s 752 mmHg 68%
21:00 +8°C° 0 mm 1 m/s 752 mmHg 69%
22:00 +8°C° 0 mm 1 m/s 752 mmHg 71%
23:00 +8°C° 0 mm 1 m/s 752 mmHg 72%

Mâine, 18 Aprilie, Duminică

Timp Temperatura Precipitaţii Vânt Presiune Umiditate
00:00 +8°C° 0 mm 1 m/s 751 mmHg 74%
01:00 +7°C° 0 mm 1 m/s 751 mmHg 76%
02:00 +7°C° 0.2 mm 1 m/s 751 mmHg 79%
03:00 +7°C° 0.2 mm 1 m/s 751 mmHg 82%
04:00 +6°C° 0.2 mm 2 m/s 751 mmHg 86%
05:00 +7°C° 0.5 mm 1 m/s 751 mmHg 87%
06:00 +7°C° 0.5 mm 1 m/s 751 mmHg 88%
07:00 +7°C° 0.5 mm 1 m/s 751 mmHg 89%
08:00 +8°C° 0.5 mm 1 m/s 751 mmHg 88%
09:00 +8°C° 0.5 mm 1 m/s 751 mmHg 87%
10:00 +9°C° 0.5 mm 1 m/s 751 mmHg 86%
11:00 +9°C° 0.4 mm 1 m/s 751 mmHg 87%
12:00 +9°C° 0.4 mm 1 m/s 752 mmHg 88%
13:00 +9°C° 0.4 mm 1 m/s 752 mmHg 90%
14:00 +8°C° 0.5 mm 1 m/s 752 mmHg 91%
15:00 +8°C° 0.5 mm 1 m/s 752 mmHg 92%
16:00 +7°C° 0.5 mm 2 m/s 752 mmHg 93%
17:00 +7°C° 0.3 mm 2 m/s 752 mmHg 94%
18:00 +6°C° 0.3 mm 2 m/s 752 mmHg 94%
19:00 +6°C° 0.3 mm 2 m/s 753 mmHg 95%
20:00 +6°C° 0.1 mm 2 m/s 753 mmHg 95%
21:00 +6°C° 0.1 mm 2 m/s 753 mmHg 95%
22:00 +7°C° 0.1 mm 1 m/s 753 mmHg 94%
23:00 +7°C° 0.1 mm 1 m/s 752 mmHg 95%

Poimâine, 19 Aprilie, Luni

Timp Temperatura Precipitaţii Vânt Presiune Umiditate
00:00 +6°C° 0.1 mm 2 m/s 752 mmHg 95%
01:00 +6°C° 0.1 mm 2 m/s 752 mmHg 96%
02:00 +7°C° 0 mm 1 m/s 752 mmHg 96%
03:00 +7°C° 0 mm 1 m/s 752 mmHg 96%
04:00 +7°C° 0 mm 1 m/s 752 mmHg 96%
05:00 +7°C° 0 mm 1 m/s 751 mmHg 93%
06:00 +8°C° 0 mm 1 m/s 751 mmHg 91%
07:00 +7°C° 0 mm 0 m/s 751 mmHg 89%
08:00 +9°C° 0 mm 1 m/s 751 mmHg 83%
09:00 +10°C° 0 mm 1 m/s 751 mmHg 77%
10:00 +11°C° 0 mm 1 m/s 751 mmHg 71%
11:00 +12°C° 0.1 mm 1 m/s 750 mmHg 68%
12:00 +12°C° 0.1 mm 1 m/s 750 mmHg 66%
13:00 +13°C° 0.1 mm 2 m/s 750 mmHg 63%
14:00 +12°C° 0 mm 2 m/s 750 mmHg 66%
15:00 +12°C° 0 mm 2 m/s 749 mmHg 68%
16:00 +12°C° 0 mm 2 m/s 749 mmHg 70%
17:00 +10°C° 0 mm 2 m/s 749 mmHg 74%
18:00 +9°C° 0 mm 2 m/s 749 mmHg 77%
19:00 +9°C° 0 mm 2 m/s 749 mmHg 81%
20:00 +8°C° 0 mm 2 m/s 749 mmHg 83%
21:00 +8°C° 0 mm 2 m/s 749 mmHg 85%
22:00 +7°C° 0 mm 2 m/s 749 mmHg 88%
23:00 +7°C° 0 mm 2 m/s 749 mmHg 88%

20 Aprilie, Marţi

Timp Temperatura Precipitaţii Vânt Presiune Umiditate
00:00 +7°C° 0 mm 2 m/s 748 mmHg 89%
01:00 +7°C° 0 mm 2 m/s 748 mmHg 90%
02:00 +7°C° 0 mm 2 m/s 748 mmHg 90%
03:00 +8°C° 0 mm 1 m/s 748 mmHg 90%
04:00 +8°C° 0 mm 1 m/s 748 mmHg 91%
05:00 +7°C° 0 mm 2 m/s 748 mmHg 89%
06:00 +7°C° 0 mm 2 m/s 749 mmHg 88%
07:00 +8°C° 0 mm 2 m/s 749 mmHg 86%
08:00 +9°C° 0.1 mm 2 m/s 749 mmHg 81%
09:00 +10°C° 0.1 mm 3 m/s 749 mmHg 75%
10:00 +11°C° 0.1 mm 3 m/s 749 mmHg 69%
11:00 +11°C° 0.2 mm 3 m/s 749 mmHg 66%
12:00 +12°C° 0.2 mm 3 m/s 749 mmHg 64%
13:00 +12°C° 0.2 mm 3 m/s 749 mmHg 62%
14:00 +12°C° 0.3 mm 3 m/s 749 mmHg 64%
15:00 +12°C° 0.3 mm 3 m/s 749 mmHg 66%
16:00 +12°C° 0.3 mm 3 m/s 749 mmHg 68%
17:00 +11°C° 0.2 mm 3 m/s 749 mmHg 74%
18:00 +9°C° 0.2 mm 2 m/s 749 mmHg 80%
19:00 +8°C° 0.2 mm 2 m/s 750 mmHg 86%
20:00 +8°C° 0 mm 2 m/s 750 mmHg 88%
21:00 +7°C° 0 mm 2 m/s 750 mmHg 89%
22:00 +7°C° 0 mm 2 m/s 750 mmHg 91%
23:00 +7°C° 0.1 mm 2 m/s 751 mmHg 92%

21 Aprilie, Miercuri

Timp Temperatura Precipitaţii Vânt Presiune Umiditate
00:00 +6°C° 0.1 mm 2 m/s 751 mmHg 94%
01:00 +6°C° 0.1 mm 2 m/s 751 mmHg 95%
02:00 +6°C° 0.1 mm 2 m/s 751 mmHg 95%
03:00 +6°C° 0.1 mm 2 m/s 751 mmHg 95%
04:00 +6°C° 0.1 mm 2 m/s 752 mmHg 95%
05:00 +6°C° 0 mm 2 m/s 752 mmHg 93%
06:00 +7°C° 0 mm 2 m/s 752 mmHg 92%
07:00 +7°C° 0 mm 2 m/s 753 mmHg 90%
08:00 +9°C° 0.1 mm 3 m/s 753 mmHg 86%
09:00 +10°C° 0.1 mm 3 m/s 753 mmHg 81%
10:00 +11°C° 0.1 mm 4 m/s 753 mmHg 76%
11:00 +12°C° 0.5 mm 4 m/s 753 mmHg 73%
12:00 +13°C° 0.5 mm 3 m/s 753 mmHg 70%
13:00 +13°C° 0.5 mm 3 m/s 753 mmHg 67%
14:00 +13°C° 0.4 mm 3 m/s 753 mmHg 66%
15:00 +14°C° 0.4 mm 3 m/s 753 mmHg 65%
16:00 +15°C° 0.4 mm 2 m/s 753 mmHg 64%
17:00 +14°C° 0.2 mm 2 m/s 753 mmHg 70%
18:00 +11°C° 0.2 mm 3 m/s 754 mmHg 75%
19:00 +10°C° 0.2 mm 3 m/s 754 mmHg 81%
20:00 +9°C° 0 mm 3 m/s 754 mmHg 83%
21:00 +9°C° 0 mm 3 m/s 754 mmHg 85%
22:00 +8°C° 0 mm 3 m/s 755 mmHg 88%
23:00 +8°C° 0 mm 2 m/s 755 mmHg 89%

22 Aprilie, Joi

Timp Temperatura Precipitaţii Vânt Presiune Umiditate
00:00 +7°C° 0 mm 2 m/s 755 mmHg 90%
01:00 +7°C° 0 mm 2 m/s 755 mmHg 91%
02:00 +6°C° 0 mm 2 m/s 755 mmHg 91%
03:00 +6°C° 0 mm 2 m/s 755 mmHg 91%
04:00 +6°C° 0 mm 2 m/s 755 mmHg 91%
05:00 +7°C° 0 mm 2 m/s 755 mmHg 88%
06:00 +8°C° 0 mm 2 m/s 756 mmHg 85%
07:00 +10°C° 0 mm 2 m/s 756 mmHg 82%
08:00 +12°C° 0 mm 2 m/s 756 mmHg 77%
09:00 +13°C° 0 mm 3 m/s 756 mmHg 71%
10:00 +16°C° 0 mm 3 m/s 756 mmHg 65%
11:00 +17°C° 0.5 mm 3 m/s 755 mmHg 63%
12:00 +17°C° 0.5 mm 3 m/s 755 mmHg 61%
13:00 +18°C° 0.5 mm 3 m/s 755 mmHg 59%
14:00 +17°C° 0.7 mm 3 m/s 755 mmHg 62%
15:00 +17°C° 0.7 mm 3 m/s 754 mmHg 65%
16:00 +17°C° 0.7 mm 3 m/s 754 mmHg 67%
17:00 +15°C° 0.3 mm 2 m/s 754 mmHg 72%
18:00 +14°C° 0.3 mm 1 m/s 754 mmHg 76%
19:00 +11°C° 0.3 mm 0 m/s 754 mmHg 80%
20:00 +12°C° 0.6 mm 2 m/s 754 mmHg 84%
21:00 +10°C° 0.6 mm 3 m/s 755 mmHg 87%
22:00 +8°C° 0.6 mm 5 m/s 755 mmHg 91%
23:00 +8°C° 0.6 mm 5 m/s 756 mmHg 91%
Arată mai mult

Formular de consimțământ

Meteoprog și furnizorii noștri de servicii pot stoca și accesa date personale, precum cookies, identificatori de dispozitiv sau alte tehnologii similare pe dispozitivul dumneavoastră și procesa astfel de date pentru a personaliza conținutul și reclamele, dar și pentru a oferi caracteristici de social media și pentru a analiza traficul.

  • Stocarea și/sau accesarea informațiilor pe dispozitivul dumneavoastră

    Cookies, identificatori de dispozitiv sau alte informații pot fi stocate sau accesate pe dispozitiv în scopurile indicate mai sus.

  • Reclame și conținut personalizat, evaluarea reclamelor și a conținutului, informații despre audiențe și dezvoltarea produselor

    Reclamele și conținutul pot fi personalizate pe baza unui profil. Pot fi adăugate date suplimentare pentru a personaliza mai bine reclamele și conținutul. Performanța reclamelor și conținutului poate fi măsurată. Pot fi obținute informații despre utilizatorii care au văzut reclamele și conținutul. Aceste date pot fi utilizate pentru a dezvolta sau îmbunătăți experiența utilizatorilor, sistemele și software-ul.

Dând clic pe ‘Sunt de acord’, permiteți utilizarea cookie-urilor menționate, a identificatorilor de dispozitiv, balizelor web sau altor tehnologii similare. Setările pot fi modificate din browser-ul dispozitivului dumneavoastră.

În anumite scopuri, interesele legitime pot prima asupra consimțământului. Puteți citi mai multe informații în acest sens în Politica privind Confidențialitatea Datelor și Cookie.